"Pseudo-MPEC" for jdq0018

Created 2025 Nov 9 8:35:10 UT using Find_Orb

Click here for an explanation of pseudo-MPECs

 
 Astrometry: 
     jdq0018*KC2025 10 30.81727 01 53 55.267+03 18 39.35   ~AV05 17.9 GXNEOCPB67
     jdq0018 KC2025 10 30.82362 01 53 55.097+03 18 44.06   ~AV05 17.8 GXNEOCPB67
     jdq0018 KC2025 10 30.82987 01 53 54.955+03 18 48.64   ~AV05 18.2 GXNEOCPB67

Station data:
(B67) Sternwarte Mirasteilas, Falera  (N46.804167 E9.224190)  Switzerland.

Orbital elements:  jdq0018
   Perihelion 2025 Nov 25.701862 +/- 48.2 TT = 16:50:40.8 (JD 2461005.201862)
Epoch 2025 Oct 31.0 TT = JDT 2460979.5   Earth MOID: 0.3647   Ma: 0.0581
M 353.078316509 +/- 19              (J2000 ecliptic)             AutoNEOCP
n   0.269306692 +/- 0.257           Peri.  355.385640 +/- 70
a   2.374859667 +/- 1.51            Node    58.257978 +/- 55
e   0.42997365 +/- 0.249            Incl.    5.505075 +/- 3.4
P   3.65980                H 18.99  G  0.15   U 11.8  SR
q 1.353732566 +/- 0.413    Q 3.395986768 +/- 75.7
From 3 observations 2025 Oct. 30 (18.1 min); mean residual 0".07
Residuals in arcseconds: 
251030 B67  .07+  .01-    251030 B67  .13-  .02+    251030 B67  .07+  .01-    

Ephemerides (geocentric):
Date (UTC) HH   RA             Dec           delta  r     elong  mag " sig PA
---- --------  ------------   ------------  ------ ------ -----  --- --------
2025 11 09 09  01 51 31.357   +05 31 08.52  .38895 1.3629 160.2 18.4  35d  93
2025 11 09 10  01 51 31.017   +05 31 46.84  .38897 1.3629 160.2 18.4  35d  93
2025 11 09 11  01 51 30.680   +05 32 25.19  .38899 1.3628 160.2 18.4  35d  93
2025 11 09 12  01 51 30.346   +05 33 03.57  .38901 1.3628 160.1 18.4  35d  93
2025 11 09 13  01 51 30.016   +05 33 41.97  .38904 1.3627 160.1 18.4  35d  93
2025 11 09 14  01 51 29.688   +05 34 20.41  .38906 1.3627 160.1 18.4  35d  93
2025 11 09 15  01 51 29.364   +05 34 58.87  .38908 1.3627 160.0 18.4  35d  93
2025 11 09 16  01 51 29.043   +05 35 37.37  .38910 1.3626 160.0 18.4  35d  93
2025 11 09 17  01 51 28.724   +05 36 15.89  .38913 1.3626 160.0 18.4  35d  93
2025 11 09 18  01 51 28.409   +05 36 54.44  .38915 1.3625 159.9 18.4  35d  93
2025 11 09 19  01 51 28.097   +05 37 33.02  .38918 1.3625 159.9 18.4  35d  93
2025 11 09 20  01 51 27.788   +05 38 11.63  .38920 1.3624 159.9 18.4  35d  93
2025 11 09 21  01 51 27.483   +05 38 50.27  .38923 1.3624 159.8 18.4  35d  93
2025 11 09 22  01 51 27.180   +05 39 28.94  .38925 1.3623 159.8 18.4  35d  93
2025 11 09 23  01 51 26.881   +05 40 07.63  .38928 1.3623 159.8 18.4  35d  93
2025 11 10 00  01 51 26.584   +05 40 46.36  .38930 1.3622 159.7 18.4  35d  93
2025 11 10 01  01 51 26.291   +05 41 25.11  .38933 1.3622 159.7 18.4  35d  93
2025 11 10 02  01 51 26.001   +05 42 03.89  .38935 1.3622 159.7 18.4  35d  93
2025 11 10 03  01 51 25.714   +05 42 42.70  .38938 1.3621 159.6 18.4  35d  93
2025 11 10 04  01 51 25.431   +05 43 21.54  .38940 1.3621 159.6 18.4  35d  93
2025 11 10 05  01 51 25.150   +05 44 00.41  .38943 1.3620 159.5 18.4  35d  93
2025 11 10 06  01 51 24.873   +05 44 39.30  .38946 1.3620 159.5 18.4  35d  93
2025 11 10 07  01 51 24.599   +05 45 18.23  .38948 1.3619 159.5 18.4  35d  93
2025 11 10 08  01 51 24.328   +05 45 57.18  .38951 1.3619 159.4 18.4  35d  93
2025 11 10 09  01 51 24.060   +05 46 36.16  .38954 1.3618 159.4 18.4  35d  93
2025 11 10 10  01 51 23.796   +05 47 15.17  .38957 1.3618 159.4 18.4  35d  93
2025 11 10 11  01 51 23.535   +05 47 54.21  .38959 1.3618 159.3 18.4  35d  93
2025 11 10 12  01 51 23.277   +05 48 33.27  .38962 1.3617 159.3 18.4  35d  93
2025 11 10 13  01 51 23.022   +05 49 12.36  .38965 1.3617 159.3 18.4  35d  93
2025 11 10 14  01 51 22.771   +05 49 51.48  .38968 1.3616 159.2 18.4  35d  93
2025 11 10 15  01 51 22.523   +05 50 30.63  .38971 1.3616 159.2 18.5  35d  93
2025 11 10 16  01 51 22.278   +05 51 09.81  .38974 1.3615 159.2 18.5  35d  93
2025 11 10 17  01 51 22.036   +05 51 49.02  .38977 1.3615 159.1 18.5  35d  93
2025 11 10 18  01 51 21.798   +05 52 28.25  .38980 1.3615 159.1 18.5  35d  94
2025 11 10 19  01 51 21.563   +05 53 07.51  .38983 1.3614 159.1 18.5  35d  94
2025 11 10 20  01 51 21.331   +05 53 46.80  .38986 1.3614 159.0 18.5  35d  94
2025 11 10 21  01 51 21.102   +05 54 26.12  .38989 1.3613 159.0 18.5  35d  94
2025 11 10 22  01 51 20.877   +05 55 05.46  .38992 1.3613 159.0 18.5  35d  94
2025 11 10 23  01 51 20.655   +05 55 44.83  .38995 1.3612 158.9 18.5  35d  94
2025 11 11 00  01 51 20.437   +05 56 24.23  .38998 1.3612 158.9 18.5  35d  94
2025 11 11 01  01 51 20.222   +05 57 03.66  .39001 1.3612 158.8 18.5  38d  87
2025 11 11 02  01 51 20.010   +05 57 43.11  .39004 1.3611 158.8 18.5  38d  88
2025 11 11 03  01 51 19.802   +05 58 22.59  .39007 1.3611 158.8 18.5  38d  88
2025 11 11 04  01 51 19.596   +05 59 02.10  .39011 1.3610 158.7 18.5  38d  88
2025 11 11 05  01 51 19.395   +05 59 41.64  .39014 1.3610 158.7 18.5  38d  88
2025 11 11 06  01 51 19.196   +06 00 21.20  .39017 1.3610 158.7 18.5  38d  89
2025 11 11 07  01 51 19.001   +06 01 00.80  .39020 1.3609 158.6 18.5  38d  89
2025 11 11 08  01 51 18.810   +06 01 40.41  .39024 1.3609 158.6 18.5  38d  89